Private Wetterstation Wechselburg
Wetterdaten: Samstag, 31.12.2011
Datum Zeit Temp. +2m Bodentemp. Temp.+5cm Temp. Wind Windchill X Diff Temp. Feuchte +2m Feuchte +5cm Sonnenschein Luftdruck Regen Wind Richtung Richtung Sonnenschein UV Taupunkt Windchill Windben
31.12.2011 00:00 2,9 C 9,1 C 2,8 C 2,2 C -0,1 C 0,0 C 83 % 87 % 0 % 1016,2 hPa 0,0 l/m 10,3 km/h (2 Bft) W-SW 247 0 min 0,0 UV-I 0,3 C -3,5 C 16,7 km/h (3 Bft)
31.12.2011 00:11 3,1 C 9,2 C 2,8 C 2,3 C -0,3 C 0,0 C 83 % 87 % 0 % 1016,2 hPa 0,0 l/m 11,3 km/h (2 Bft) N 0 0 min 0,0 UV-I 0,5 C -4,0 C 10,3 km/h (2 Bft)
31.12.2011 00:25 2,9 C 9,1 C 2,7 C 2,1 C -0,4 C 0,0 C 83 % 87 % 0 % 1016,2 hPa 0,0 l/m 10,8 km/h (2 Bft) S-SW 202 0 min 0,0 UV-I 0,3 C -4,0 C 9,7 km/h (2 Bft)
31.12.2011 00:30 2,9 C 9,1 C 2,7 C 1,8 C -0,4 C 0,0 C 83 % 87 % 0 % 1016,2 hPa 0,0 l/m 10,8 km/h (2 Bft) W-SW 247 0 min 0,0 UV-I 0,3 C -4,0 C 12,9 km/h (3 Bft)
31.12.2011 00:35 2,9 C 9,1 C 2,7 C 1,8 C -0,4 C 0,0 C 83 % 87 % 0 % 1016,2 hPa 0,0 l/m 10,9 km/h (2 Bft) SW 225 0 min 0,0 UV-I 0,3 C -4,0 C 10,3 km/h (2 Bft)
31.12.2011 00:40 2,9 C 9,1 C 2,7 C 2,1 C -0,6 C 0,0 C 83 % 87 % 0 % 1015,9 hPa 0,0 l/m 11,7 km/h (2 Bft) W-SW 247 0 min 0,0 UV-I 0,3 C -4,5 C 14,2 km/h (3 Bft)
31.12.2011 00:45 2,9 C 9,1 C 2,7 C 2,1 C -0,5 C 0,0 C 83 % 87 % 0 % 1015,9 hPa 0,0 l/m 11,3 km/h (2 Bft) SW 225 0 min 0,0 UV-I 0,3 C -4,2 C 8,9 km/h (2 Bft)
31.12.2011 00:50 2,8 C 9,1 C 2,7 C 2,1 C -0,3 C 0,0 C 83 % 87 % 0 % 1015,9 hPa 0,0 l/m 10,5 km/h (2 Bft) SW 225 0 min 0,0 UV-I 0,2 C -3,8 C 13,4 km/h (3 Bft)
31.12.2011 00:55 2,8 C 9,1 C 2,7 C 2,1 C -0,1 C 0,0 C 83 % 87 % 0 % 1015,9 hPa 0,0 l/m 9,0 km/h (2 Bft) S-SO 157 0 min 0,0 UV-I 0,2 C -3,2 C 12,1 km/h (2 Bft)
31.12.2011 01:00 2,8 C 9,1 C 2,6 C 2,1 C -0,3 C 0,0 C 83 % 87 % 0 % 1016,6 hPa 0,0 l/m 9,3 km/h (2 Bft) SW 225 0 min 0,0 UV-I 0,2 C -3,5 C 12,2 km/h (2 Bft)
31.12.2011 01:05 2,7 C 9,1 C 2,6 C 2,0 C -0,5 C 0,0 C 84 % 87 % 0 % 1016,6 hPa 0,0 l/m 10,1 km/h (2 Bft) W-SW 247 0 min 0,0 UV-I 0,3 C -3,9 C 12,9 km/h (3 Bft)
31.12.2011 01:10 2,7 C 9,1 C 2,6 C 1,9 C -0,6 C 0,0 C 84 % 87 % 0 % 1016,6 hPa 0,0 l/m 10,3 km/h (2 Bft) W-SW 247 0 min 0,0 UV-I 0,3 C -4,1 C 11,1 km/h (2 Bft)
31.12.2011 01:15 2,7 C 9,1 C 2,5 C 1,9 C -0,7 C 0,0 C 84 % 87 % 0 % 1016,6 hPa 0,0 l/m 11,4 km/h (2 Bft) W-SW 247 0 min 0,0 UV-I 0,3 C -4,5 C 20,1 km/h (4 Bft)
31.12.2011 01:20 2,7 C 9,1 C 2,5 C 1,9 C -0,6 C 0,0 C 84 % 87 % 0 % 1016,8 hPa 0,0 l/m 11,1 km/h (2 Bft) W-SW 247 0 min 0,0 UV-I 0,3 C -4,3 C 24,0 km/h (4 Bft)
31.12.2011 01:25 2,8 C 9,1 C 2,6 C 1,7 C -0,6 C 0,0 C 84 % 87 % 0 % 1016,8 hPa 0,0 l/m 11,3 km/h (2 Bft) W 270 0 min 0,0 UV-I 0,4 C -4,4 C 12,2 km/h (2 Bft)
31.12.2011 01:30 2,7 C 9,1 C 2,6 C 1,9 C -0,7 C 0,0 C 84 % 87 % 0 % 1016,8 hPa 0,0 l/m 11,4 km/h (2 Bft) W-SW 247 0 min 0,0 UV-I 0,3 C -4,5 C 14,8 km/h (3 Bft)
31.12.2011 01:35 2,8 C 9,1 C 2,7 C 1,6 C -0,7 C 0,0 C 84 % 87 % 0 % 1016,8 hPa 0,0 l/m 12,4 km/h (3 Bft) W-SW 247 0 min 0,0 UV-I 0,4 C -4,7 C 17,5 km/h (3 Bft)
31.12.2011 01:40 2,9 C 9,1 C 2,7 C 2,0 C -0,9 C 0,0 C 83 % 87 % 0 % 1016,8 hPa 0,0 l/m 13,5 km/h (3 Bft) W-SW 247 0 min 0,0 UV-I 0,3 C -5,2 C 15,3 km/h (3 Bft)
31.12.2011 01:45 2,9 C 9,1 C 2,7 C 2,0 C -0,8 C 0,0 C 84 % 87 % 0 % 1016,8 hPa 0,0 l/m 12,6 km/h (3 Bft) W-SW 247 0 min 0,0 UV-I 0,5 C -4,9 C 16,6 km/h (3 Bft)
31.12.2011 01:50 2,8 C 9,1 C 2,6 C 2,0 C -0,5 C 0,0 C 84 % 87 % 0 % 1016,8 hPa 0,0 l/m 11,4 km/h (2 Bft) W-SW 247 0 min 0,0 UV-I 0,4 C -4,3 C 16,1 km/h (3 Bft)
31.12.2011 01:55 2,8 C 9,1 C 2,5 C 1,7 C -0,5 C 0,0 C 84 % 87 % 0 % 1016,8 hPa 0,0 l/m 10,8 km/h (2 Bft) W 270 0 min 0,0 UV-I 0,4 C -4,1 C 9,8 km/h (2 Bft)
31.12.2011 02:00 2,7 C 9,1 C 2,5 C 2,0 C -0,3 C 0,0 C 84 % 87 % 0 % 1016,4 hPa 0,0 l/m 10,1 km/h (2 Bft) SW 225 0 min 0,0 UV-I 0,3 C -3,7 C 12,6 km/h (3 Bft)
31.12.2011 02:14 2,7 C 9,1 C 2,5 C 2,0 C -0,7 C 0,0 C 84 % 87 % 0 % 1016,4 hPa 0,0 l/m 10,9 km/h (2 Bft) W-SW 247 0 min 0,0 UV-I 0,3 C -4,4 C 12,1 km/h (2 Bft)
31.12.2011 02:15 2,7 C 9,1 C 2,5 C 1,6 C -0,7 C 0,0 C 84 % 87 % 0 % 1016,4 hPa 0,0 l/m 10,9 km/h (2 Bft) W-SW 247 0 min 0,0 UV-I 0,3 C -4,4 C 12,1 km/h (2 Bft)
31.12.2011 02:18 2,7 C 9,1 C 2,5 C 2,0 C -0,7 C 0,0 C 84 % 87 % 0 % 1016,4 hPa 0,0 l/m 10,9 km/h (2 Bft) W-SW 247 0 min 0,0 UV-I 0,3 C -4,4 C 12,1 km/h (2 Bft)
31.12.2011 02:29 2,7 C 9,1 C 2,4 C 1,6 C -0,7 C 0,0 C 84 % 87 % 0 % 1017,1 hPa 0,0 l/m 10,6 km/h (2 Bft) SW 225 0 min 0,0 UV-I 0,3 C -4,3 C 17,4 km/h (3 Bft)
31.12.2011 02:30 2,7 C 9,1 C 2,4 C 1,6 C -0,7 C 0,0 C 84 % 87 % 0 % 1017,1 hPa 0,0 l/m 10,6 km/h (2 Bft) SW 225 0 min 0,0 UV-I 0,3 C -4,3 C 17,4 km/h (3 Bft)
31.12.2011 02:31 2,7 C 9,1 C 2,4 C 1,6 C -0,7 C 0,0 C 84 % 87 % 0 % 1017,1 hPa 0,0 l/m 10,6 km/h (2 Bft) SW 225 0 min 0,0 UV-I 0,3 C -4,3 C 17,4 km/h (3 Bft)
31.12.2011 02:32 2,7 C 9,1 C 2,4 C 1,6 C -0,7 C 0,0 C 84 % 87 % 0 % 1017,1 hPa 0,0 l/m 10,6 km/h (2 Bft) SW 225 0 min 0,0 UV-I 0,3 C -4,3 C 17,4 km/h (3 Bft)
31.12.2011 02:33 2,7 C 9,1 C 2,4 C 1,6 C -0,7 C 0,0 C 84 % 87 % 0 % 1017,1 hPa 0,0 l/m 10,6 km/h (2 Bft) SW 225 0 min 0,0 UV-I 0,3 C -4,3 C 17,4 km/h (3 Bft)
31.12.2011 02:34 2,7 C 9,1 C 2,4 C 2,0 C -0,3 C 0,0 C 84 % 88 % 0 % 1017,1 hPa 0,0 l/m 9,0 km/h (2 Bft) W-SW 247 0 min 0,0 UV-I 0,3 C -3,4 C 15,6 km/h (3 Bft)
31.12.2011 02:37 2,7 C 9,1 C 2,4 C 1,7 C -0,3 C 0,0 C 84 % 88 % 0 % 1017,1 hPa 0,0 l/m 9,0 km/h (2 Bft) W-SW 247 0 min 0,0 UV-I 0,3 C -3,4 C 15,6 km/h (3 Bft)
31.12.2011 02:40 2,7 C 9,2 C 2,4 C 2,0 C -0,4 C 0,0 C 84 % 88 % 0 % 1017,2 hPa 0,0 l/m 9,3 km/h (2 Bft) W-SW 247 0 min 0,0 UV-I 0,3 C -3,6 C 8,5 km/h (2 Bft)
31.12.2011 02:45 2,5 C 9,1 C 2,4 C 1,5 C -0,4 C 0,0 C 84 % 88 % 0 % 1017,2 hPa 0,0 l/m 9,2 km/h (2 Bft) N 360 0 min 0,0 UV-I 0,1 C -3,6 C 9,8 km/h (2 Bft)
31.12.2011 02:50 2,5 C 9,1 C 2,5 C 1,8 C -0,3 C 0,0 C 84 % 88 % 0 % 1017,2 hPa 0,0 l/m 8,7 km/h (2 Bft) W-SW 247 0 min 0,0 UV-I 0,1 C -3,3 C 15,0 km/h (3 Bft)
31.12.2011 02:55 2,5 C 9,2 C 2,4 C 1,6 C -0,3 C 0,0 C 85 % 88 % 0 % 1017,2 hPa 0,0 l/m 8,9 km/h (2 Bft) W-SW 247 0 min 0,0 UV-I 0,2 C -3,4 C 9,2 km/h (2 Bft)
31.12.2011 03:00 2,4 C 9,2 C 2,4 C 1,5 C -0,3 C 0,0 C 85 % 88 % 0 % 1017,0 hPa 0,0 l/m 8,5 km/h (2 Bft) SW 225 0 min 0,0 UV-I 0,1 C -3,2 C 8,9 km/h (2 Bft)
31.12.2011 03:04 2,5 C 9,1 C 2,4 C 1,7 C 0,1 C 0,0 C 85 % 88 % 0 % 1017,0 hPa 0,0 l/m 6,8 km/h (2 Bft) W-SW 247 0 min 0,0 UV-I 0,2 C -2,2 C 6,9 km/h (2 Bft)
31.12.2011 03:09 2,4 C 9,1 C 2,4 C 1,7 C 0,2 C 0,0 C 85 % 88 % 0 % 1017,0 hPa 0,0 l/m 6,4 km/h (2 Bft) W-SW 247 0 min 0,0 UV-I 0,1 C -2,0 C 11,1 km/h (2 Bft)
31.12.2011 03:14 2,4 C 9,1 C 2,4 C 1,7 C 0,2 C 0,0 C 85 % 88 % 0 % 1017,0 hPa 0,0 l/m 6,6 km/h (2 Bft) W-SW 247 0 min 0,0 UV-I 0,1 C -2,0 C 6,8 km/h (2 Bft)
31.12.2011 03:19 2,4 C 9,2 C 2,3 C 1,7 C 0,3 C 0,0 C 85 % 88 % 0 % 1016,9 hPa 0,0 l/m 6,1 km/h (2 Bft) W-SW 247 0 min 0,0 UV-I 0,1 C -1,7 C 6,1 km/h (2 Bft)
31.12.2011 03:21 2,4 C 9,2 C 2,3 C 1,7 C 0,3 C 0,0 C 85 % 88 % 0 % 1016,9 hPa 0,0 l/m 6,1 km/h (2 Bft) W-SW 247 0 min 0,0 UV-I 0,1 C -1,7 C 6,1 km/h (2 Bft)
31.12.2011 03:25 2,4 C 9,1 C 2,3 C 1,8 C 0,6 C 0,0 C 85 % 88 % 0 % 1016,9 hPa 0,0 l/m 5,5 km/h (1 Bft) W-SW 247 0 min 0,0 UV-I 0,1 C -1,1 C 5,3 km/h (1 Bft)
31.12.2011 03:30 2,4 C 9,2 C 2,3 C 1,9 C 1,0 C 0,0 C 85 % 88 % 0 % 1016,9 hPa 0,0 l/m 4,5 km/h (1 Bft) N 360 0 min 0,0 UV-I 0,1 C 1,0 C 6,4 km/h (2 Bft)
31.12.2011 03:35 2,4 C 9,2 C 2,3 C 2,0 C 1,3 C 0,0 C 85 % 88 % 0 % 1016,9 hPa 0,0 l/m 3,7 km/h (1 Bft) W-SW 247 0 min 0,0 UV-I 0,1 C 1,3 C 7,4 km/h (2 Bft)
31.12.2011 03:40 2,4 C 9,1 C 2,2 C 2,0 C 1,1 C 0,0 C 85 % 88 % 0 % 1017,1 hPa 0,0 l/m 4,2 km/h (1 Bft) SW 225 0 min 0,0 UV-I 0,1 C 1,1 C 8,2 km/h (2 Bft)
31.12.2011 03:45 2,4 C 9,1 C 2,3 C 1,9 C 0,9 C 0,0 C 85 % 88 % 0 % 1017,1 hPa 0,0 l/m 4,8 km/h (1 Bft) S-SW 202 0 min 0,0 UV-I 0,1 C -0,5 C 5,0 km/h (1 Bft)
31.12.2011 03:50 2,4 C 9,1 C 2,2 C 1,8 C 0,7 C 0,0 C 85 % 88 % 0 % 1017,1 hPa 0,0 l/m 4,8 km/h (1 Bft) W-SW 247 0 min 0,0 UV-I 0,1 C -0,7 C 8,7 km/h (2 Bft)
31.12.2011 03:55 2,4 C 9,1 C 2,3 C 1,9 C 1,0 C 0,0 C 85 % 88 % 0 % 1017,1 hPa 0,0 l/m 4,5 km/h (1 Bft) S 180 0 min 0,0 UV-I 0,1 C 1,0 C 4,2 km/h (1 Bft)
31.12.2011 04:00 2,4 C 9,1 C 2,2 C 1,9 C 0,8 C 0,0 C 85 % 88 % 0 % 1017,1 hPa 0,0 l/m 5,0 km/h (1 Bft) W-SW 247 0 min 0,0 UV-I 0,1 C -0,7 C 7,6 km/h (2 Bft)
31.12.2011 04:04 2,4 C 9,1 C 2,3 C 1,9 C 0,8 C 0,0 C 85 % 88 % 0 % 1017,1 hPa 0,0 l/m 5,0 km/h (1 Bft) W 270 0 min 0,0 UV-I 0,1 C -0,7 C 4,3 km/h (1 Bft)
31.12.2011 04:09 2,4 C 9,1 C 2,2 C 1,8 C 0,6 C 0,0 C 85 % 88 % 0 % 1017,1 hPa 0,0 l/m 5,5 km/h (1 Bft) NW 315 0 min 0,0 UV-I 0,1 C -1,1 C 10,6 km/h (2 Bft)
31.12.2011 04:14 2,5 C 9,1 C 2,3 C 1,8 C 0,3 C 0,0 C 84 % 88 % 0 % 1017,1 hPa 0,0 l/m 6,1 km/h (2 Bft) W 270 0 min 0,0 UV-I 0,1 C -1,7 C 6,1 km/h (2 Bft)
31.12.2011 04:20 2,4 C 9,1 C 2,3 C 1,7 C 0,2 C 0,0 C 84 % 88 % 0 % 1017,4 hPa 0,0 l/m 6,4 km/h (2 Bft) W-SW 247 0 min 0,0 UV-I -0,0 C -2,0 C 6,4 km/h (2 Bft)
31.12.2011 04:25 2,4 C 9,1 C 2,3 C 1,8 C 0,7 C 0,0 C 84 % 88 % 0 % 1017,4 hPa 0,0 l/m 5,3 km/h (1 Bft) SO 135 0 min 0,0 UV-I -0,0 C -0,9 C 6,1 km/h (2 Bft)
31.12.2011 04:30 2,4 C 9,1 C 2,3 C 1,9 C 1,0 C 0,0 C 84 % 88 % 0 % 1017,4 hPa 0,0 l/m 4,5 km/h (1 Bft) SW 225 0 min 0,0 UV-I -0,0 C 1,0 C 7,9 km/h (2 Bft)
31.12.2011 04:35 2,5 C 9,1 C 2,3 C 1,9 C 0,7 C 0,0 C 84 % 88 % 0 % 1017,4 hPa 0,0 l/m 5,1 km/h (1 Bft) W-SW 247 0 min 0,0 UV-I 0,1 C -0,8 C 10,6 km/h (2 Bft)
31.12.2011 04:40 2,5 C 9,1 C 2,3 C 1,8 C 0,3 C 0,0 C 84 % 88 % 0 % 1016,6 hPa 0,0 l/m 6,6 km/h (2 Bft) W-SW 247 0 min 0,0 UV-I 0,1 C -1,9 C 7,1 km/h (2 Bft)
31.12.2011 04:45 2,5 C 9,1 C 2,4 C 1,7 C 0,1 C 0,0 C 84 % 88 % 0 % 1016,6 hPa 0,0 l/m 7,1 km/h (2 Bft) W 270 0 min 0,0 UV-I 0,1 C -2,3 C 7,9 km/h (2 Bft)
31.12.2011 04:50 2,5 C 9,1 C 2,4 C 1,8 C 0,4 C 0,0 C 84 % 88 % 0 % 1016,6 hPa 0,0 l/m 6,1 km/h (2 Bft) W-SW 247 0 min 0,0 UV-I 0,1 C -1,6 C 10,8 km/h (2 Bft)
31.12.2011 04:55 2,5 C 9,1 C 2,4 C 1,8 C 0,3 C 0,0 C 84 % 88 % 0 % 1016,6 hPa 0,0 l/m 6,4 km/h (2 Bft) SW 225 0 min 0,0 UV-I 0,1 C -1,8 C 9,8 km/h (2 Bft)
31.12.2011 05:00 2,5 C 9,1 C 2,4 C 1,7 C 0,1 C 0,0 C 84 % 88 % 0 % 1016,7 hPa 0,0 l/m 7,1 km/h (2 Bft) SW 225 0 min 0,0 UV-I 0,1 C -2,3 C 9,5 km/h (2 Bft)
31.12.2011 05:14 2,4 C 9,1 C 2,3 C 1,9 C 1,0 C 0,0 C 84 % 88 % 0 % 1016,7 hPa 0,0 l/m 4,5 km/h (1 Bft) W-SW 247 0 min 0,0 UV-I -0,0 C 1,0 C 9,2 km/h (2 Bft)
31.12.2011 05:15 2,4 C 9,1 C 2,3 C 1,9 C 1,0 C 0,0 C 84 % 88 % 0 % 1016,7 hPa 0,0 l/m 4,5 km/h (1 Bft) W-SW 247 0 min 0,0 UV-I -0,0 C 1,0 C 9,2 km/h (2 Bft)
31.12.2011 05:18 2,4 C 9,1 C 2,3 C 1,9 C 1,0 C 0,0 C 84 % 88 % 0 % 1016,7 hPa 0,0 l/m 4,5 km/h (1 Bft) W-SW 247 0 min 0,0 UV-I -0,0 C 1,0 C 9,2 km/h (2 Bft)
31.12.2011 05:29 2,4 C 9,1 C 2,3 C 1,8 C 0,6 C 0,0 C 85 % 88 % 0 % 1017,0 hPa 0,0 l/m 4,8 km/h (1 Bft) W 270 0 min 0,0 UV-I 0,1 C -0,8 C 5,1 km/h (1 Bft)
31.12.2011 05:30 2,4 C 9,1 C 2,3 C 1,8 C 0,6 C 0,0 C 85 % 88 % 0 % 1017,0 hPa 0,0 l/m 4,8 km/h (1 Bft) W 270 0 min 0,0 UV-I 0,1 C -0,8 C 5,1 km/h (1 Bft)
31.12.2011 05:31 2,4 C 9,1 C 2,3 C 1,8 C 0,6 C 0,0 C 85 % 88 % 0 % 1017,0 hPa 0,0 l/m 4,8 km/h (1 Bft) W 270 0 min 0,0 UV-I 0,1 C -0,8 C 5,1 km/h (1 Bft)
31.12.2011 05:32 2,4 C 9,1 C 2,3 C 1,8 C 0,6 C 0,0 C 85 % 88 % 0 % 1017,0 hPa 0,0 l/m 4,8 km/h (1 Bft) W 270 0 min 0,0 UV-I 0,1 C -0,8 C 5,1 km/h (1 Bft)
31.12.2011 05:33 2,4 C 9,1 C 2,3 C 1,8 C 0,6 C 0,0 C 85 % 88 % 0 % 1017,0 hPa 0,0 l/m 4,8 km/h (1 Bft) W 270 0 min 0,0 UV-I 0,1 C -0,8 C 5,1 km/h (1 Bft)
31.12.2011 05:34 2,3 C 9,1 C 2,3 C 1,8 C 0,9 C 0,0 C 85 % 88 % 0 % 1017,0 hPa 0,0 l/m 4,2 km/h (1 Bft) W-NW 292 0 min 0,0 UV-I 0,0 C 0,9 C 2,7 km/h (1 Bft)
31.12.2011 05:37 2,3 C 9,1 C 2,3 C 1,8 C 0,9 C 0,0 C 85 % 88 % 0 % 1017,0 hPa 0,0 l/m 4,2 km/h (1 Bft) W-NW 292 0 min 0,0 UV-I 0,0 C 0,9 C 2,7 km/h (1 Bft)
31.12.2011 05:45 2,3 C 9,1 C 2,2 C 1,8 C 0,9 C 0,0 C 85 % 88 % 0 % 1017,0 hPa 0,0 l/m 4,2 km/h (1 Bft) SW 225 0 min 0,0 UV-I 0,0 C 0,9 C 6,1 km/h (2 Bft)
31.12.2011 05:50 2,3 C 9,1 C 2,3 C 1,8 C 0,8 C 0,0 C 85 % 88 % 0 % 1017,0 hPa 0,0 l/m 4,5 km/h (1 Bft) O-SO 112 0 min 0,0 UV-I 0,0 C 0,8 C 3,1 km/h (1 Bft)
31.12.2011 05:55 2,3 C 9,1 C 2,3 C 1,9 C 1,1 C 0,0 C 85 % 88 % 0 % 1017,0 hPa 0,0 l/m 3,9 km/h (1 Bft) W 270 0 min 0,0 UV-I 0,0 C 1,1 C 1,6 km/h (1 Bft)
31.12.2011 06:00 2,3 C 9,1 C 2,3 C 2,0 C 1,3 C 0,0 C 85 % 88 % 0 % 1016,4 hPa 0,0 l/m 3,5 km/h (1 Bft) S 180 0 min 0,0 UV-I 0,0 C 1,3 C 7,1 km/h (2 Bft)
31.12.2011 06:15 2,3 C 9,1 C 2,3 C 1,8 C 0,8 C 0,0 C 86 % 88 % 0 % 1016,4 hPa 0,0 l/m 4,3 km/h (1 Bft) W-SW 247 0 min 0,0 UV-I 0,2 C 0,8 C 10,0 km/h (2 Bft)
31.12.2011 06:25 2,3 C 9,1 C 2,3 C 1,6 C 0,2 C 0,0 C 86 % 88 % 0 % 1016,6 hPa 0,0 l/m 5,8 km/h (2 Bft) W-SW 247 0 min 0,0 UV-I 0,2 C -1,7 C 5,3 km/h (1 Bft)
31.12.2011 06:30 2,3 C 9,1 C 2,3 C 1,7 C 0,6 C 0,0 C 85 % 88 % 0 % 1016,6 hPa 0,0 l/m 5,3 km/h (1 Bft) W-SW 247 0 min 0,0 UV-I 0,0 C -1,0 C 6,4 km/h (2 Bft)
31.12.2011 06:35 2,3 C 9,1 C 2,3 C 1,8 C 0,7 C 0,0 C 85 % 88 % 0 % 1016,6 hPa 0,0 l/m 5,3 km/h (1 Bft) SW 225 0 min 0,0 UV-I 0,0 C -0,9 C 7,7 km/h (2 Bft)
31.12.2011 06:40 2,4 C 9,1 C 2,3 C 1,7 C 0,4 C 0,0 C 85 % 88 % 0 % 1017,2 hPa 0,0 l/m 6,0 km/h (2 Bft) W-SW 247 0 min 0,0 UV-I 0,1 C -1,6 C 7,6 km/h (2 Bft)
31.12.2011 06:45 2,4 C 9,1 C 2,3 C 1,8 C 0,7 C 0,0 C 85 % 88 % 0 % 1017,2 hPa 0,0 l/m 5,3 km/h (1 Bft) SW 225 0 min 0,0 UV-I 0,1 C -0,9 C 5,1 km/h (1 Bft)
31.12.2011 06:50 2,3 C 9,1 C 2,3 C 1,9 C 1,1 C 0,0 C 85 % 88 % 0 % 1017,2 hPa 0,0 l/m 4,3 km/h (1 Bft) SW 225 0 min 0,0 UV-I 0,0 C 1,1 C 6,0 km/h (2 Bft)
31.12.2011 06:55 2,3 C 9,1 C 2,3 C 2,0 C 1,3 C 0,0 C 85 % 88 % 0 % 1017,2 hPa 0,0 l/m 3,9 km/h (1 Bft) S 180 0 min 0,0 UV-I 0,0 C 1,3 C 7,7 km/h (2 Bft)
31.12.2011 07:00 2,3 C 9,1 C 2,2 C 1,8 C 0,9 C 0,0 C 85 % 88 % 0 % 1017,1 hPa 0,0 l/m 4,7 km/h (1 Bft) S-SO 157 0 min 0,0 UV-I 0,0 C -0,4 C 10,1 km/h (2 Bft)
31.12.2011 07:04 2,3 C 9,1 C 2,3 C 1,6 C 0,3 C 0,0 C 85 % 88 % 0 % 1017,1 hPa 0,0 l/m 6,1 km/h (2 Bft) SW 225 0 min 0,0 UV-I 0,0 C -1,7 C 5,6 km/h (1 Bft)
31.12.2011 07:09 2,3 C 9,1 C 2,3 C 1,7 C 0,4 C 0,0 C 85 % 88 % 0 % 1017,1 hPa 0,0 l/m 5,8 km/h (2 Bft) W-SW 247 0 min 0,0 UV-I 0,0 C -1,5 C 4,3 km/h (1 Bft)
31.12.2011 07:14 2,3 C 9,1 C 2,3 C 2,0 C 1,4 C 0,0 C 85 % 89 % 0 % 1017,1 hPa 0,0 l/m 3,7 km/h (1 Bft) SW 225 0 min 0,0 UV-I 0,0 C 1,4 C 0,0 km/h (0 Bft)
31.12.2011 07:19 2,3 C 9,1 C 2,3 C 2,2 C 2,0 C 0,0 C 85 % 89 % 0 % 1017,1 hPa 0,0 l/m 2,3 km/h (1 Bft) S 180 0 min 0,0 UV-I 0,0 C 2,0 C 5,1 km/h (1 Bft)
31.12.2011 07:21 2,3 C 9,1 C 2,3 C 2,2 C 2,0 C 0,0 C 85 % 89 % 0 % 1017,1 hPa 0,0 l/m 2,3 km/h (1 Bft) S 180 0 min 0,0 UV-I 0,0 C 2,0 C 5,1 km/h (1 Bft)
31.12.2011 07:25 2,2 C 9,1 C 2,3 C 2,1 C 1,9 C 0,0 C 85 % 88 % 0 % 1017,1 hPa 0,0 l/m 1,8 km/h (1 Bft) W 270 0 min 0,0 UV-I -0,1 C 1,9 C 3,5 km/h (1 Bft)
31.12.2011 07:30 2,3 C 9,1 C 2,3 C 2,1 C 1,8 C 0,0 C 85 % 88 % 0 % 1017,1 hPa 0,0 l/m 2,3 km/h (1 Bft) W 270 0 min 0,0 UV-I 0,0 C 1,8 C 2,1 km/h (1 Bft)
31.12.2011 07:35 2,2 C 9,1 C 2,1 C 2,0 C 1,5 C 0,0 C 85 % 88 % 0 % 1017,1 hPa 0,0 l/m 1,6 km/h (1 Bft) NO 45 0 min 0,0 UV-I -0,1 C 1,5 C 0,0 km/h (0 Bft)
31.12.2011 07:40 2,1 C 9,1 C 2,0 C 1,9 C 1,4 C 0,0 C 85 % 88 % 0 % 1017,0 hPa 0,0 l/m 1,0 km/h (0 Bft) O-SO 112 0 min 0,0 UV-I -0,2 C 1,4 C 0,0 km/h (0 Bft)
31.12.2011 07:45 2,1 C 9,1 C 2,0 C 1,8 C 1,1 C 0,0 C 85 % 88 % 0 % 1017,0 hPa 0,0 l/m 1,0 km/h (0 Bft) S-SO 157 0 min 0,0 UV-I -0,2 C 1,1 C 1,8 km/h (1 Bft)
31.12.2011 07:50 2,0 C 9,2 C 1,9 C 1,7 C 1,0 C 0,0 C 86 % 88 % 0 % 1017,0 hPa 0,0 l/m 1,4 km/h (1 Bft) SO 135 0 min 0,0 UV-I -0,1 C 1,0 C 3,1 km/h (1 Bft)
31.12.2011 07:55 2,0 C 9,2 C 2,0 C 1,6 C 0,9 C 0,0 C 86 % 88 % 0 % 1017,0 hPa 0,0 l/m 1,3 km/h (1 Bft) W-SW 247 0 min 0,0 UV-I -0,1 C 0,9 C 0,0 km/h (0 Bft)
31.12.2011 08:00 1,9 C 9,2 C 1,9 C 1,6 C 0,9 C 0,0 C 86 % 88 % 0 % 1016,8 hPa 0,0 l/m 1,3 km/h (1 Bft) NW 315 0 min 0,0 UV-I -0,2 C 0,9 C 1,9 km/h (1 Bft)
31.12.2011 08:14 1,7 C 9,2 C 1,5 C 1,2 C 0,2 C 0,0 C 86 % 88 % 0 % 1016,8 hPa 0,0 l/m 0,3 km/h (0 Bft) N 0 0 min 0,0 UV-I -0,4 C 0,2 C 0,0 km/h (0 Bft)
31.12.2011 08:18 1,7 C 9,2 C 1,5 C 1,2 C 0,2 C 0,0 C 86 % 88 % 0 % 1016,8 hPa 0,0 l/m 0,3 km/h (0 Bft) W-SW 247 0 min 0,0 UV-I -0,4 C 0,2 C 0,0 km/h (0 Bft)
31.12.2011 08:25 1,5 C 9,3 C 1,3 C 1,0 C 0,0 C 0,0 C 86 % 89 % 0 % 1017,1 hPa 0,0 l/m 0,0 km/h (0 Bft) O-SO 112 0 min 0,0 UV-I -0,6 C 0,0 C 0,0 km/h (0 Bft)
31.12.2011 08:30 1,3 C 9,3 C 1,3 C 0,8 C -0,1 C 0,0 C 86 % 89 % 0 % 1017,1 hPa 0,0 l/m 0,0 km/h (0 Bft) W-SW 247 0 min 0,0 UV-I -0,8 C -0,1 C 0,0 km/h (0 Bft)
31.12.2011 08:35 1,2 C 9,3 C 1,2 C 0,7 C -0,2 C 0,0 C 86 % 89 % 0 % 1017,1 hPa 0,0 l/m 0,0 km/h (0 Bft) S-SO 157 0 min 0,0 UV-I -0,9 C -0,2 C 0,0 km/h (0 Bft)
31.12.2011 08:40 1,2 C 9,3 C 1,3 C 0,7 C -0,2 C 0,0 C 86 % 89 % 0 % 1017,1 hPa 0,0 l/m 0,0 km/h (0 Bft) SW 225 0 min 0,0 UV-I -0,9 C -0,2 C 1,9 km/h (1 Bft)
31.12.2011 08:45 1,1 C 9,3 C 1,3 C 0,7 C -0,1 C 0,0 C 87 % 89 % 0 % 1017,1 hPa 0,0 l/m 0,2 km/h (0 Bft) S-SO 157 0 min 0,0 UV-I -0,8 C -0,1 C 0,0 km/h (0 Bft)
31.12.2011 08:50 1,2 C 9,3 C 1,2 C 0,8 C 0,1 C 0,0 C 87 % 90 % 0 % 1017,1 hPa 0,0 l/m 0,2 km/h (0 Bft) N-NO 22 0 min 0,0 UV-I -0,7 C 0,1 C 0,0 km/h (0 Bft)
31.12.2011 08:55 1,1 C 9,2 C 1,3 C 0,9 C 0,4 C 0,0 C 87 % 90 % 0 % 1017,1 hPa 0,0 l/m 0,2 km/h (0 Bft) NW 315 0 min 0,0 UV-I -0,8 C 0,4 C 0,0 km/h (0 Bft)
31.12.2011 09:00 1,1 C 9,2 C 1,3 C 0,9 C 0,6 C 0,0 C 88 % 90 % 0 % 1017,1 hPa 0,0 l/m 0,3 km/h (0 Bft) O-NO 67 0 min 0,0 UV-I -0,7 C 0,6 C 0,0 km/h (0 Bft)
31.12.2011 09:15 1,3 C 9,2 C 1,6 C 1,2 C 1,1 C 0,0 C 88 % 90 % 0 % 1017,1 hPa 0,0 l/m 1,8 km/h (1 Bft) S-SW 202 0 min 0,0 UV-I -0,5 C 1,1 C 3,7 km/h (1 Bft)
31.12.2011 09:25 1,5 C 9,2 C 1,6 C 1,5 C 1,4 C 0,0 C 88 % 90 % 0 % 1017,2 hPa 0,0 l/m 0,6 km/h (0 Bft) O 90 0 min 0,0 UV-I -0,3 C 1,4 C 1,6 km/h (1 Bft)
31.12.2011 09:30 1,5 C 9,1 C 1,7 C 1,5 C 1,5 C 0,0 C 88 % 90 % 0 % 1017,2 hPa 0,0 l/m 1,6 km/h (1 Bft) S 180 0 min 0,0 UV-I -0,3 C 1,5 C 3,7 km/h (1 Bft)
31.12.2011 09:35 1,6 C 9,1 C 1,8 C 1,6 C 1,5 C 0,0 C 88 % 89 % 0 % 1017,2 hPa 0,0 l/m 2,3 km/h (1 Bft) S-SW 202 0 min 0,0 UV-I -0,2 C 1,5 C 4,8 km/h (1 Bft)
31.12.2011 09:40 1,7 C 9,1 C 1,8 C 1,6 C 1,4 C 0,0 C 87 % 89 % 0 % 1017,3 hPa 0,0 l/m 1,9 km/h (1 Bft) S 180 0 min 0,0 UV-I -0,2 C 1,4 C 4,3 km/h (1 Bft)
31.12.2011 09:45 1,7 C 9,1 C 1,7 C 1,6 C 1,4 C 0,0 C 87 % 89 % 0 % 1017,3 hPa 0,0 l/m 2,4 km/h (1 Bft) S 180 0 min 0,0 UV-I -0,2 C 1,4 C 2,1 km/h (1 Bft)
31.12.2011 09:50 1,8 C 9,1 C 1,9 C 1,6 C 1,3 C 0,0 C 87 % 89 % 0 % 1017,3 hPa 0,0 l/m 2,4 km/h (1 Bft) SO 135 0 min 0,0 UV-I -0,1 C 1,3 C 6,6 km/h (2 Bft)
31.12.2011 09:55 1,9 C 9,1 C 1,9 C 1,7 C 1,3 C 0,0 C 87 % 89 % 0 % 1017,3 hPa 0,0 l/m 1,6 km/h (1 Bft) W 270 0 min 0,0 UV-I -0,0 C 1,3 C 2,4 km/h (1 Bft)
31.12.2011 10:00 1,9 C 9,0 C 1,9 C 1,7 C 1,4 C 0,0 C 87 % 88 % 0 % 1017,3 hPa 0,0 l/m 1,6 km/h (1 Bft) SW 225 0 min 0,0 UV-I -0,0 C 1,4 C 2,1 km/h (1 Bft)
31.12.2011 10:10 2,3 C 9,1 C 2,0 C 2,2 C 2,1 C 0,0 C 86 % 88 % 0 % 1017,3 hPa 0,0 l/m 2,3 km/h (1 Bft) N 0 0 min 0,0 UV-I 0,2 C 2,1 C 3,4 km/h (1 Bft)
31.12.2011 10:25 2,5 C 9,0 C 2,3 C 2,0 C 1,1 C 0,0 C 84 % 88 % 0 % 1017,4 hPa 0,0 l/m 5,6 km/h (1 Bft) W-SW 247 0 min 0,0 UV-I 0,1 C -0,6 C 6,0 km/h (2 Bft)
31.12.2011 10:30 2,7 C 9,0 C 2,4 C 2,2 C 1,3 C 0,0 C 84 % 88 % 0 % 1017,4 hPa 0,0 l/m 6,3 km/h (2 Bft) W-SW 247 0 min 0,0 UV-I 0,3 C -0,6 C 9,5 km/h (2 Bft)
31.12.2011 10:35 2,8 C 8,9 C 2,4 C 2,3 C 1,4 C 0,0 C 83 % 87 % 0 % 1017,4 hPa 0,0 l/m 7,2 km/h (2 Bft) W 270 0 min 0,0 UV-I 0,2 C -0,8 C 7,9 km/h (2 Bft)
31.12.2011 10:40 2,8 C 8,9 C 2,6 C 2,5 C 1,2 C 0,0 C 82 % 87 % 0 % 1016,9 hPa 0,0 l/m 7,7 km/h (2 Bft) SW 225 0 min 0,0 UV-I 0,0 C -1,2 C 9,8 km/h (2 Bft)
31.12.2011 10:45 2,9 C 8,9 C 2,5 C 2,4 C 1,3 C 0,0 C 82 % 86 % 0 % 1016,9 hPa 0,0 l/m 6,9 km/h (2 Bft) W 270 0 min 0,0 UV-I 0,1 C -0,9 C 5,8 km/h (2 Bft)
31.12.2011 10:50 2,9 C 8,9 C 2,6 C 2,4 C 1,5 C 0,0 C 82 % 86 % 0 % 1016,9 hPa 0,0 l/m 6,6 km/h (2 Bft) SO 135 0 min 0,0 UV-I 0,1 C -0,5 C 12,6 km/h (3 Bft)
31.12.2011 10:55 3,1 C 8,9 C 2,7 C 2,6 C 1,7 C 0,0 C 82 % 85 % 0 % 1016,9 hPa 0,0 l/m 6,6 km/h (2 Bft) SW 225 0 min 0,0 UV-I 0,3 C -0,3 C 9,5 km/h (2 Bft)
31.12.2011 11:00 3,1 C 8,9 C 2,7 C 2,6 C 1,7 C 0,0 C 82 % 85 % 0 % 1016,9 hPa 0,0 l/m 6,6 km/h (2 Bft) SW 225 0 min 0,0 UV-I 0,3 C -0,3 C 9,5 km/h (2 Bft)
31.12.2011 11:04 3,2 C 8,9 C 2,9 C 2,8 C 2,1 C 0,0 C 81 % 85 % 0 % 1016,9 hPa 0,0 l/m 6,4 km/h (2 Bft) W-SW 247 0 min 0,0 UV-I 0,3 C 0,2 C 5,6 km/h (1 Bft)
31.12.2011 11:09 3,3 C 8,9 C 2,9 C 2,8 C 1,9 C 0,0 C 81 % 85 % 0 % 1016,9 hPa 0,0 l/m 7,1 km/h (2 Bft) W-SW 247 0 min 0,0 UV-I 0,4 C -0,2 C 13,2 km/h (3 Bft)
31.12.2011 11:14 3,3 C 8,9 C 3,0 C 3,1 C 1,8 C 0,0 C 80 % 84 % 0 % 1016,9 hPa 0,0 l/m 8,7 km/h (2 Bft) SW 225 0 min 0,0 UV-I 0,2 C -0,8 C 13,0 km/h (3 Bft)
31.12.2011 11:19 3,4 C 8,9 C 3,1 C 3,1 C 1,6 C 0,0 C 80 % 84 % 0 % 1016,9 hPa 0,0 l/m 8,9 km/h (2 Bft) W-SW 247 0 min 0,0 UV-I 0,3 C -1,1 C 9,5 km/h (2 Bft)
31.12.2011 11:24 3,3 C 8,9 C 3,1 C 3,0 C 2,5 C 0,0 C 80 % 84 % 0 % 1016,9 hPa 0,0 l/m 5,8 km/h (2 Bft) W-SW 247 0 min 0,0 UV-I 0,2 C 0,9 C 6,1 km/h (2 Bft)
31.12.2011 11:30 3,3 C 8,9 C 3,1 C 3,1 C 2,8 C 0,0 C 80 % 84 % 0 % 1016,9 hPa 0,0 l/m 4,8 km/h (1 Bft) O-NO 67 0 min 0,0 UV-I 0,2 C 1,7 C 2,9 km/h (1 Bft)
31.12.2011 11:35 3,4 C 8,9 C 3,1 C 3,8 C 3,8 C 0,4 C 80 % 84 % 11 % 1016,9 hPa 0,0 l/m 3,4 km/h (1 Bft) S-SO 157 0 min 0,0 UV-I 0,3 C 3,8 C 6,0 km/h (2 Bft)
31.12.2011 11:40 3,5 C 8,8 C 3,3 C 4,1 C 4,1 C 0,6 C 80 % 84 % 16 % 1016,6 hPa 0,0 l/m 3,2 km/h (1 Bft) W-SW 247 0 min 0,0 UV-I 0,4 C 4,1 C 3,2 km/h (1 Bft)
31.12.2011 11:45 3,5 C 8,8 C 3,3 C 4,2 C 4,2 C 0,7 C 80 % 84 % 18 % 1016,6 hPa 0,0 l/m 3,4 km/h (1 Bft) S-SW 202 0 min 0,0 UV-I 0,4 C 4,2 C 1,6 km/h (1 Bft)
31.12.2011 11:50 3,6 C 8,8 C 3,5 C 4,6 C 4,6 C 1,0 C 80 % 83 % 26 % 1016,6 hPa 0,0 l/m 2,4 km/h (1 Bft) S-SO 157 0 min 0,0 UV-I 0,5 C 4,6 C 3,4 km/h (1 Bft)
31.12.2011 11:55 3,6 C 8,8 C 3,5 C 4,9 C 4,9 C 1,3 C 79 % 83 % 34 % 1016,6 hPa 0,0 l/m 2,9 km/h (1 Bft) W-SW 247 0 min 0,0 UV-I 0,3 C 4,9 C 5,0 km/h (1 Bft)
31.12.2011 12:00 3,6 C 8,8 C 3,5 C 4,2 C 4,2 C 0,6 C 79 % 83 % 16 % 1016,8 hPa 0,0 l/m 3,7 km/h (1 Bft) SW 225 0 min 0,0 UV-I 0,3 C 4,2 C 8,5 km/h (2 Bft)
31.12.2011 12:15 3,6 C 8,8 C 3,5 C 4,1 C 4,1 C 0,5 C 79 % 82 % 13 % 1016,8 hPa 0,0 l/m 1,8 km/h (1 Bft) W 270 0 min 0,0 UV-I 0,3 C 4,1 C 3,4 km/h (1 Bft)
31.12.2011 12:18 3,6 C 8,8 C 3,5 C 4,1 C 4,1 C 0,5 C 79 % 82 % 13 % 1016,8 hPa 0,0 l/m 1,8 km/h (1 Bft) W 270 0 min 0,0 UV-I 0,3 C 4,1 C 3,4 km/h (1 Bft)
31.12.2011 12:29 3,7 C 8,8 C 3,5 C 3,7 C 3,7 C 0,0 C 78 % 81 % 0 % 1016,1 hPa 0,0 l/m 4,5 km/h (1 Bft) S 180 0 min 0,0 UV-I 0,2 C 3,7 C 10,6 km/h (2 Bft)
31.12.2011 12:30 3,7 C 8,8 C 3,5 C 3,7 C 3,7 C 0,0 C 78 % 81 % 0 % 1016,1 hPa 0,0 l/m 4,5 km/h (1 Bft) S 180 0 min 0,0 UV-I 0,2 C 3,7 C 10,6 km/h (2 Bft)
31.12.2011 12:31 3,7 C 8,8 C 3,5 C 3,7 C 3,7 C 0,0 C 78 % 81 % 0 % 1016,1 hPa 0,0 l/m 4,5 km/h (1 Bft) S 180 0 min 0,0 UV-I 0,2 C 3,7 C 10,6 km/h (2 Bft)
31.12.2011 12:32 3,7 C 8,8 C 3,5 C 3,7 C 3,7 C 0,0 C 78 % 81 % 0 % 1016,1 hPa 0,0 l/m 4,5 km/h (1 Bft) S 180 0 min 0,0 UV-I 0,2 C 3,7 C 10,6 km/h (2 Bft)
31.12.2011 12:33 3,7 C 8,8 C 3,5 C 3,7 C 3,7 C 0,0 C 78 % 81 % 0 % 1016,1 hPa 0,0 l/m 4,5 km/h (1 Bft) S 180 0 min 0,0 UV-I 0,2 C 3,7 C 10,6 km/h (2 Bft)
31.12.2011 12:34 3,7 C 8,8 C 3,6 C 3,6 C 3,5 C 0,0 C 78 % 81 % 0 % 1016,1 hPa 0,0 l/m 5,0 km/h (1 Bft) N-NW 337 0 min 0,0 UV-I 0,2 C 2,4 C 2,6 km/h (1 Bft)
31.12.2011 12:37 3,7 C 8,8 C 3,6 C 3,6 C 3,5 C 0,0 C 78 % 81 % 0 % 1016,1 hPa 0,0 l/m 5,0 km/h (1 Bft) N-NW 337 0 min 0,0 UV-I 0,2 C 2,4 C 2,6 km/h (1 Bft)
31.12.2011 12:40 3,7 C 8,8 C 3,7 C 3,8 C 3,8 C 0,1 C 78 % 81 % 3 % 1016,1 hPa 0,0 l/m 4,0 km/h (1 Bft) W-SW 247 0 min 0,0 UV-I 0,2 C 3,8 C 0,0 km/h (0 Bft)
31.12.2011 12:45 3,8 C 8,8 C 3,6 C 4,0 C 4,0 C 0,2 C 77 % 81 % 5 % 1016,1 hPa 0,0 l/m 3,7 km/h (1 Bft) SW 225 0 min 0,0 UV-I 0,1 C 4,0 C 6,4 km/h (2 Bft)
31.12.2011 12:50 3,9 C 8,8 C 3,8 C 3,8 C 3,6 C 0,0 C 77 % 80 % 0 % 1016,1 hPa 0,0 l/m 5,1 km/h (1 Bft) S-SO 157 0 min 0,0 UV-I 0,2 C 2,5 C 4,8 km/h (1 Bft)
31.12.2011 12:55 3,8 C 8,8 C 3,9 C 3,9 C 3,9 C 0,1 C 77 % 80 % 3 % 1016,1 hPa 0,0 l/m 4,8 km/h (1 Bft) NO 45 0 min 0,0 UV-I 0,1 C 2,9 C 5,8 km/h (2 Bft)
31.12.2011 13:00 3,9 C 8,8 C 3,8 C 4,8 C 4,8 C 0,9 C 77 % 79 % 24 % 1015,6 hPa 0,0 l/m 2,9 km/h (1 Bft) S-SO 157 0 min 0,0 UV-I 0,2 C 4,8 C 0,0 km/h (0 Bft)
31.12.2011 13:10 3,9 C 8,8 C 3,9 C 4,1 C 4,1 C 0,2 C 76 % 79 % 5 % 1015,6 hPa 0,0 l/m 4,3 km/h (1 Bft) N 0 0 min 0,0 UV-I 0,1 C 4,1 C 4,2 km/h (1 Bft)
31.12.2011 13:25 3,9 C 8,8 C 3,9 C 3,8 C 3,7 C 0,0 C 76 % 79 % 0 % 1016,0 hPa 0,0 l/m 4,8 km/h (1 Bft) SO 135 0 min 0,0 UV-I 0,1 C 2,7 C 2,7 km/h (1 Bft)
31.12.2011 13:30 3,9 C 8,8 C 3,9 C 4,2 C 4,2 C 0,3 C 76 % 79 % 8 % 1016,0 hPa 0,0 l/m 3,5 km/h (1 Bft) S 180 0 min 0,0 UV-I 0,1 C 4,2 C 4,8 km/h (1 Bft)
31.12.2011 13:35 3,9 C 8,8 C 3,9 C 4,3 C 4,3 C 0,4 C 76 % 78 % 11 % 1016,0 hPa 0,0 l/m 3,5 km/h (1 Bft) S-SW 202 0 min 0,0 UV-I 0,1 C 4,3 C 7,4 km/h (2 Bft)
31.12.2011 13:40 3,9 C 8,8 C 4,0 C 4,3 C 4,3 C 0,4 C 76 % 78 % 11 % 1015,6 hPa 0,0 l/m 3,7 km/h (1 Bft) W-SW 247 0 min 0,0 UV-I 0,1 C 4,3 C 4,7 km/h (1 Bft)
31.12.2011 13:45 4,1 C 8,8 C 4,1 C 4,0 C 3,7 C 0,0 C 75 % 78 % 0 % 1015,6 hPa 0,0 l/m 5,6 km/h (1 Bft) S-SW 202 0 min 0,0 UV-I 0,1 C 2,4 C 9,7 km/h (2 Bft)
31.12.2011 13:50 4,0 C 8,8 C 4,0 C 3,8 C 3,4 C 0,0 C 74 % 77 % 0 % 1015,6 hPa 0,0 l/m 6,4 km/h (2 Bft) SW 225 0 min 0,0 UV-I -0,2 C 1,7 C 3,9 km/h (1 Bft)
31.12.2011 13:55 4,0 C 8,8 C 4,1 C 3,8 C 3,5 C 0,0 C 74 % 77 % 0 % 1015,6 hPa 0,0 l/m 5,8 km/h (2 Bft) SW 225 0 min 0,0 UV-I -0,2 C 2,1 C 9,0 km/h (2 Bft)
31.12.2011 14:00 4,1 C 8,8 C 4,1 C 4,0 C 3,7 C 0,0 C 74 % 77 % 0 % 1015,4 hPa 0,0 l/m 5,1 km/h (1 Bft) S-SO 157 0 min 0,0 UV-I -0,1 C 2,6 C 6,0 km/h (2 Bft)
31.12.2011 14:15 4,0 C 8,8 C 4,0 C 3,6 C 2,9 C 0,0 C 74 % 77 % 0 % 1015,4 hPa 0,0 l/m 5,8 km/h (2 Bft) SW 225 0 min 0,0 UV-I -0,2 C 1,4 C 3,9 km/h (1 Bft)
31.12.2011 14:18 4,0 C 8,8 C 4,0 C 3,6 C 2,9 C 0,0 C 74 % 77 % 0 % 1015,4 hPa 0,0 l/m 5,8 km/h (2 Bft) SW 225 0 min 0,0 UV-I -0,2 C 1,4 C 3,9 km/h (1 Bft)
31.12.2011 14:29 4,0 C 8,8 C 4,0 C 3,9 C 3,8 C 0,0 C 74 % 78 % 0 % 1015,9 hPa 0,0 l/m 4,5 km/h (1 Bft) S-SW 202 0 min 0,0 UV-I -0,2 C 3,8 C 4,5 km/h (1 Bft)
31.12.2011 14:30 4,0 C 8,8 C 4,0 C 3,9 C 3,8 C 0,0 C 74 % 78 % 0 % 1015,9 hPa 0,0 l/m 4,5 km/h (1 Bft) S-SW 202 0 min 0,0 UV-I -0,2 C 3,8 C 4,5 km/h (1 Bft)
31.12.2011 14:31 4,0 C 8,8 C 4,0 C 3,9 C 3,8 C 0,0 C 74 % 78 % 0 % 1015,9 hPa 0,0 l/m 4,5 km/h (1 Bft) S-SW 202 0 min 0,0 UV-I -0,2 C 3,8 C 4,5 km/h (1 Bft)
31.12.2011 14:32 4,0 C 8,8 C 4,0 C 3,9 C 3,8 C 0,0 C 74 % 78 % 0 % 1015,9 hPa 0,0 l/m 4,5 km/h (1 Bft) S-SW 202 0 min 0,0 UV-I -0,2 C 3,8 C 4,5 km/h (1 Bft)
31.12.2011 14:33 4,0 C 8,8 C 4,0 C 3,9 C 3,8 C 0,0 C 74 % 78 % 0 % 1015,9 hPa 0,0 l/m 4,5 km/h (1 Bft) S-SW 202 0 min 0,0 UV-I -0,2 C 3,8 C 4,5 km/h (1 Bft)
31.12.2011 14:34 4,1 C 8,8 C 4,1 C 4,4 C 4,4 C 0,3 C 75 % 78 % 8 % 1015,9 hPa 0,0 l/m 3,2 km/h (1 Bft) S-SW 202 0 min 0,0 UV-I 0,1 C 4,4 C 2,1 km/h (1 Bft)
31.12.2011 14:39 4,1 C 8,8 C 4,0 C 4,5 C 4,5 C 0,4 C 75 % 78 % 11 % 1015,8 hPa 0,0 l/m 2,9 km/h (1 Bft) SW 225 0 min 0,0 UV-I 0,1 C 4,5 C 4,8 km/h (1 Bft)
31.12.2011 14:44 4,0 C 8,9 C 4,0 C 4,5 C 4,5 C 0,5 C 75 % 78 % 13 % 1015,8 hPa 0,0 l/m 1,8 km/h (1 Bft) SO 135 0 min 0,0 UV-I -0,0 C 4,5 C 0,0 km/h (0 Bft)
31.12.2011 14:49 4,0 C 8,9 C 4,0 C 4,3 C 4,3 C 0,3 C 75 % 78 % 8 % 1015,8 hPa 0,0 l/m 1,9 km/h (1 Bft) SW 225 0 min 0,0 UV-I -0,0 C 4,3 C 7,4 km/h (2 Bft)
31.12.2011 14:54 4,0 C 8,9 C 4,0 C 4,2 C 4,2 C 0,2 C 75 % 78 % 5 % 1015,8 hPa 0,0 l/m 2,3 km/h (1 Bft) O 90 0 min 0,0 UV-I -0,0 C 4,2 C 0,0 km/h (0 Bft)
31.12.2011 14:59 4,0 C 8,9 C 3,9 C 4,1 C 4,1 C 0,1 C 75 % 78 % 3 % 1015,4 hPa 0,0 l/m 2,3 km/h (1 Bft) S-SO 157 0 min 0,0 UV-I -0,0 C 4,1 C 1,9 km/h (1 Bft)
31.12.2011 15:04 3,9 C 8,9 C 3,9 C 4,0 C 4,0 C 0,1 C 75 % 79 % 3 % 1015,4 hPa 0,0 l/m 1,1 km/h (1 Bft) SO 135 0 min 0,0 UV-I -0,1 C 4,0 C 1,8 km/h (1 Bft)
31.12.2011 15:09 3,9 C 8,9 C 3,9 C 3,9 C 3,8 C 0,0 C 76 % 79 % 0 % 1015,4 hPa 0,0 l/m 1,1 km/h (1 Bft) S 180 0 min 0,0 UV-I 0,1 C 3,8 C 0,0 km/h (0 Bft)
31.12.2011 15:14 3,9 C 8,9 C 3,7 C 3,8 C 3,6 C 0,0 C 76 % 79 % 0 % 1015,4 hPa 0,0 l/m 1,4 km/h (1 Bft) S 180 0 min 0,0 UV-I 0,1 C 3,6 C 2,1 km/h (1 Bft)
31.12.2011 15:19 3,8 C 8,9 C 3,7 C 3,6 C 3,3 C 0,0 C 76 % 79 % 0 % 1015,8 hPa 0,0 l/m 0,6 km/h (0 Bft) O-NO 67 0 min 0,0 UV-I -0,0 C 3,3 C 0,0 km/h (0 Bft)
31.12.2011 15:24 3,6 C 8,9 C 3,5 C 3,5 C 3,2 C 0,0 C 76 % 80 % 0 % 1015,8 hPa 0,0 l/m 0,2 km/h (0 Bft) SW 225 0 min 0,0 UV-I -0,2 C 3,2 C 0,0 km/h (0 Bft)
31.12.2011 15:29 3,6 C 8,9 C 3,5 C 3,4 C 3,1 C 0,0 C 76 % 80 % 0 % 1015,8 hPa 0,0 l/m 0,2 km/h (0 Bft) S-SW 202 0 min 0,0 UV-I -0,2 C 3,1 C 0,0 km/h (0 Bft)
31.12.2011 15:34 3,5 C 8,9 C 3,5 C 3,4 C 3,1 C 0,0 C 76 % 80 % 0 % 1015,8 hPa 0,0 l/m 0,3 km/h (0 Bft) SW 225 0 min 0,0 UV-I -0,3 C 3,1 C 3,1 km/h (1 Bft)
31.12.2011 15:39 3,5 C 9,0 C 3,5 C 3,4 C 3,1 C 0,0 C 77 % 81 % 0 % 1015,1 hPa 0,0 l/m 0,5 km/h (0 Bft) N 360 0 min 0,0 UV-I -0,1 C 3,1 C 0,0 km/h (0 Bft)
31.12.2011 15:43 3,5 C 9,0 C 3,5 C 3,4 C 3,1 C 0,0 C 77 % 81 % 0 % 1015,1 hPa 0,0 l/m 0,5 km/h (0 Bft) N 360 0 min 0,0 UV-I -0,1 C 3,1 C 0,0 km/h (0 Bft)
31.12.2011 15:50 3,5 C 8,9 C 3,5 C 3,4 C 3,3 C 0,0 C 77 % 81 % 0 % 1015,1 hPa 0,0 l/m 0,2 km/h (0 Bft) N-NW 337 0 min 0,0 UV-I -0,1 C 3,3 C 0,0 km/h (0 Bft)
31.12.2011 15:55 3,5 C 8,9 C 3,5 C 3,4 C 3,3 C 0,0 C 77 % 81 % 0 % 1015,1 hPa 0,0 l/m 0,2 km/h (0 Bft) O-SO 112 0 min 0,0 UV-I -0,1 C 3,3 C 0,0 km/h (0 Bft)
31.12.2011 16:00 3,5 C 8,9 C 3,5 C 3,5 C 3,4 C 0,0 C 77 % 81 % 0 % 1015,1 hPa 0,0 l/m 0,0 km/h (0 Bft) O-SO 112 0 min 0,0 UV-I -0,1 C 3,4 C 0,0 km/h (0 Bft)
31.12.2011 16:14 3,5 C 8,9 C 3,5 C 3,5 C 3,4 C 0,0 C 78 % 81 % 0 % 1015,1 hPa 0,0 l/m 0,2 km/h (0 Bft) SO 135 0 min 0,0 UV-I 0,0 C 3,4 C 0,0 km/h (0 Bft)
31.12.2011 16:17 3,5 C 8,9 C 3,5 C 3,5 C 3,4 C 0,0 C 78 % 81 % 0 % 1015,1 hPa 0,0 l/m 0,2 km/h (0 Bft) SO 135 0 min 0,0 UV-I 0,0 C 3,4 C 0,0 km/h (0 Bft)
31.12.2011 16:27 3,5 C 9,0 C 3,4 C 3,4 C 3,3 C 0,0 C 78 % 82 % 0 % 1015,4 hPa 0,0 l/m 0,0 km/h (0 Bft) O-NO 67 0 min 0,0 UV-I 0,0 C 3,3 C 0,0 km/h (0 Bft)
31.12.2011 16:28 3,5 C 9,0 C 3,4 C 3,4 C 3,3 C 0,0 C 78 % 82 % 0 % 1015,4 hPa 0,0 l/m 0,0 km/h (0 Bft) O-NO 67 0 min 0,0 UV-I 0,0 C 3,3 C 0,0 km/h (0 Bft)
31.12.2011 16:29 3,5 C 9,0 C 3,4 C 3,4 C 3,3 C 0,0 C 78 % 82 % 0 % 1015,4 hPa 0,0 l/m 0,0 km/h (0 Bft) O-NO 67 0 min 0,0 UV-I 0,0 C 3,3 C 0,0 km/h (0 Bft)
31.12.2011 16:30 3,4 C 9,0 C 3,3 C 3,4 C 3,3 C 0,0 C 79 % 82 % 0 % 1015,4 hPa 0,0 l/m 0,0 km/h (0 Bft) NO 45 0 min 0,0 UV-I 0,1 C 3,3 C 0,0 km/h (0 Bft)
31.12.2011 16:31 3,4 C 9,0 C 3,3 C 3,4 C 3,3 C 0,0 C 79 % 82 % 0 % 1015,4 hPa 0,0 l/m 0,0 km/h (0 Bft) NO 45 0 min 0,0 UV-I 0,1 C 3,3 C 0,0 km/h (0 Bft)
31.12.2011 16:33 3,4 C 9,0 C 3,3 C 3,4 C 3,3 C 0,0 C 79 % 82 % 0 % 1015,4 hPa 0,0 l/m 0,0 km/h (0 Bft) NO 45 0 min 0,0 UV-I 0,1 C 3,3 C 0,0 km/h (0 Bft)
31.12.2011 16:40 3,3 C 9,0 C 3,2 C 3,2 C 3,1 C 0,0 C 79 % 82 % 0 % 1015,8 hPa 0,0 l/m 0,0 km/h (0 Bft) N-NO 22 0 min 0,0 UV-I 0,0 C 3,1 C 0,0 km/h (0 Bft)
31.12.2011 16:45 3,3 C 9,0 C 3,2 C 3,3 C 3,2 C 0,0 C 79 % 83 % 0 % 1015,8 hPa 0,0 l/m 1,1 km/h (1 Bft) S-SO 157 0 min 0,0 UV-I 0,0 C 3,2 C 2,4 km/h (1 Bft)
31.12.2011 16:50 3,3 C 9,0 C 3,3 C 3,3 C 3,2 C 0,0 C 79 % 83 % 0 % 1015,8 hPa 0,0 l/m 2,7 km/h (1 Bft) S-SW 202 0 min 0,0 UV-I 0,0 C 3,2 C 5,5 km/h (1 Bft)
31.12.2011 16:55 3,5 C 9,0 C 3,4 C 3,2 C 2,7 C 0,0 C 79 % 82 % 0 % 1015,8 hPa 0,0 l/m 3,9 km/h (1 Bft) S 180 0 min 0,0 UV-I 0,2 C 2,7 C 5,0 km/h (1 Bft)
31.12.2011 17:00 3,4 C 9,0 C 3,5 C 3,2 C 2,8 C 0,0 C 79 % 82 % 0 % 1015,8 hPa 0,0 l/m 3,9 km/h (1 Bft) S 180 0 min 0,0 UV-I 0,1 C 2,8 C 5,0 km/h (1 Bft)
31.12.2011 17:04 3,4 C 9,0 C 3,4 C 3,3 C 3,1 C 0,0 C 79 % 82 % 0 % 1015,8 hPa 0,0 l/m 3,2 km/h (1 Bft) W 270 0 min 0,0 UV-I 0,1 C 3,1 C 3,4 km/h (1 Bft)
31.12.2011 17:09 3,5 C 9,0 C 3,4 C 3,4 C 3,3 C 0,0 C 79 % 82 % 0 % 1015,8 hPa 0,0 l/m 2,9 km/h (1 Bft) S 180 0 min 0,0 UV-I 0,2 C 3,3 C 3,4 km/h (1 Bft)
31.12.2011 17:14 3,5 C 9,1 C 3,3 C 3,5 C 3,4 C 0,0 C 79 % 82 % 0 % 1015,8 hPa 0,0 l/m 2,7 km/h (1 Bft) S 180 0 min 0,0 UV-I 0,2 C 3,4 C 3,5 km/h (1 Bft)
31.12.2011 17:21 3,5 C 9,1 C 3,3 C 3,4 C 3,3 C 0,0 C 79 % 83 % 0 % 1015,6 hPa 0,0 l/m 2,3 km/h (1 Bft) S-SW 202 0 min 0,0 UV-I 0,2 C 3,3 C 3,5 km/h (1 Bft)
31.12.2011 17:25 3,4 C 9,1 C 3,3 C 3,4 C 3,3 C 0,0 C 79 % 83 % 0 % 1015,6 hPa 0,0 l/m 1,3 km/h (1 Bft) W-SW 247 0 min 0,0 UV-I 0,1 C 3,3 C 0,0 km/h (0 Bft)
31.12.2011 17:30 3,4 C 9,1 C 3,2 C 3,4 C 3,3 C 0,0 C 79 % 83 % 0 % 1015,6 hPa 0,0 l/m 1,1 km/h (1 Bft) S 180 0 min 0,0 UV-I 0,1 C 3,3 C 3,2 km/h (1 Bft)
31.12.2011 17:35 3,3 C 9,1 C 3,2 C 3,2 C 3,1 C 0,0 C 80 % 83 % 0 % 1015,6 hPa 0,0 l/m 0,8 km/h (0 Bft) S 180 0 min 0,0 UV-I 0,2 C 3,1 C 0,0 km/h (0 Bft)
31.12.2011 17:40 3,3 C 9,1 C 3,1 C 3,2 C 2,9 C 0,0 C 80 % 83 % 0 % 1015,6 hPa 0,0 l/m 0,5 km/h (0 Bft) SW 225 0 min 0,0 UV-I 0,2 C 2,9 C 0,0 km/h (0 Bft)
31.12.2011 17:45 3,2 C 9,2 C 3,1 C 3,0 C 2,6 C 0,0 C 80 % 84 % 0 % 1015,6 hPa 0,0 l/m 0,0 km/h (0 Bft) S 180 0 min 0,0 UV-I 0,1 C 2,6 C 0,0 km/h (0 Bft)
31.12.2011 17:50 3,1 C 9,2 C 2,9 C 2,9 C 2,4 C 0,0 C 80 % 84 % 0 % 1015,6 hPa 0,0 l/m 0,2 km/h (0 Bft) S-SO 157 0 min 0,0 UV-I -0,0 C 2,4 C 3,2 km/h (1 Bft)
31.12.2011 17:55 3,1 C 9,2 C 2,8 C 2,8 C 2,2 C 0,0 C 80 % 84 % 0 % 1015,6 hPa 0,0 l/m 0,5 km/h (0 Bft) S-SO 157 0 min 0,0 UV-I -0,0 C 2,2 C 1,6 km/h (1 Bft)
31.12.2011 18:00 3,1 C 9,2 C 2,9 C 2,8 C 2,1 C 0,0 C 81 % 84 % 0 % 1015,4 hPa 0,0 l/m 0,8 km/h (0 Bft) NO 45 0 min 0,0 UV-I 0,2 C 2,1 C 0,0 km/h (0 Bft)
31.12.2011 18:04 2,9 C 9,2 C 2,9 C 2,6 C 2,1 C 0,0 C 81 % 85 % 0 % 1015,4 hPa 0,0 l/m 1,4 km/h (1 Bft) S-SO 157 0 min 0,0 UV-I -0,0 C 2,1 C 2,1 km/h (1 Bft)
31.12.2011 18:09 2,9 C 9,2 C 2,8 C 2,6 C 2,0 C 0,0 C 81 % 85 % 0 % 1015,4 hPa 0,0 l/m 1,6 km/h (1 Bft) S-SW 202 0 min 0,0 UV-I -0,0 C 2,0 C 4,2 km/h (1 Bft)
31.12.2011 18:14 2,9 C 9,2 C 2,8 C 2,6 C 2,1 C 0,0 C 82 % 85 % 0 % 1015,4 hPa 0,0 l/m 1,8 km/h (1 Bft) S 180 0 min 0,0 UV-I 0,1 C 2,1 C 2,1 km/h (1 Bft)
31.12.2011 18:20 2,8 C 9,2 C 2,8 C 2,6 C 2,1 C 0,0 C 82 % 85 % 0 % 1015,4 hPa 0,0 l/m 1,9 km/h (1 Bft) SW 225 0 min 0,0 UV-I 0,0 C 2,1 C 4,5 km/h (1 Bft)
31.12.2011 18:25 2,8 C 9,2 C 2,8 C 2,6 C 2,1 C 0,0 C 82 % 85 % 0 % 1015,4 hPa 0,0 l/m 2,3 km/h (1 Bft) S 180 0 min 0,0 UV-I 0,0 C 2,1 C 3,4 km/h (1 Bft)
31.12.2011 18:30 2,9 C 9,2 C 2,8 C 2,6 C 1,9 C 0,0 C 82 % 86 % 0 % 1015,4 hPa 0,0 l/m 2,9 km/h (1 Bft) SO 135 0 min 0,0 UV-I 0,1 C 1,9 C 5,8 km/h (2 Bft)
31.12.2011 18:35 2,9 C 9,2 C 2,8 C 2,5 C 1,6 C 0,0 C 82 % 86 % 0 % 1015,4 hPa 0,0 l/m 3,4 km/h (1 Bft) S-SO 157 0 min 0,0 UV-I 0,1 C 1,6 C 0,0 km/h (0 Bft)
31.12.2011 18:40 2,8 C 9,2 C 2,7 C 2,6 C 2,1 C 0,0 C 82 % 85 % 0 % 1015,4 hPa 0,0 l/m 2,6 km/h (1 Bft) S 180 0 min 0,0 UV-I 0,0 C 2,1 C 2,9 km/h (1 Bft)
31.12.2011 18:45 2,8 C 9,2 C 2,7 C 2,6 C 2,1 C 0,0 C 82 % 86 % 0 % 1015,4 hPa 0,0 l/m 1,6 km/h (1 Bft) S-SO 157 0 min 0,0 UV-I 0,0 C 2,1 C 1,9 km/h (1 Bft)
31.12.2011 18:50 2,8 C 9,2 C 2,6 C 2,6 C 2,1 C 0,0 C 82 % 86 % 0 % 1015,4 hPa 0,0 l/m 1,3 km/h (1 Bft) S 180 0 min 0,0 UV-I 0,0 C 2,1 C 3,7 km/h (1 Bft)
31.12.2011 18:55 2,7 C 9,2 C 2,7 C 2,5 C 2,1 C 0,0 C 83 % 86 % 0 % 1015,4 hPa 0,0 l/m 0,8 km/h (0 Bft) SW 225 0 min 0,0 UV-I 0,1 C 2,1 C 2,4 km/h (1 Bft)
31.12.2011 19:00 2,7 C 9,2 C 2,7 C 2,5 C 2,1 C 0,0 C 83 % 86 % 0 % 1016,1 hPa 0,0 l/m 0,5 km/h (0 Bft) O-SO 112 0 min 0,0 UV-I 0,1 C 2,1 C 0,0 km/h (0 Bft)
31.12.2011 19:15 2,7 C 9,2 C 2,6 C 2,6 C 2,3 C 0,0 C 83 % 87 % 0 % 1016,1 hPa 0,0 l/m 0,0 km/h (0 Bft) W-SW 247 0 min 0,0 UV-I 0,1 C 2,3 C 0,0 km/h (0 Bft)
31.12.2011 19:25 2,5 C 9,2 C 2,7 C 2,4 C 2,3 C 0,0 C 84 % 87 % 0 % 1015,4 hPa 0,0 l/m 0,0 km/h (0 Bft) W-NW 292 0 min 0,0 UV-I 0,1 C 2,3 C 0,0 km/h (0 Bft)
31.12.2011 19:30 2,5 C 9,2 C 2,7 C 2,4 C 2,3 C 0,0 C 84 % 87 % 0 % 1015,4 hPa 0,0 l/m 0,0 km/h (0 Bft) SW 225 0 min 0,0 UV-I 0,1 C 2,3 C 0,0 km/h (0 Bft)
31.12.2011 19:35 2,5 C 9,2 C 2,7 C 2,5 C 2,4 C 0,0 C 84 % 87 % 0 % 1015,4 hPa 0,0 l/m 0,6 km/h (0 Bft) S 180 0 min 0,0 UV-I 0,1 C 2,4 C 2,4 km/h (1 Bft)
31.12.2011 19:40 2,7 C 9,2 C 2,6 C 2,6 C 2,5 C 0,0 C 84 % 87 % 0 % 1015,4 hPa 0,0 l/m 1,0 km/h (0 Bft) W-SW 247 0 min 0,0 UV-I 0,3 C 2,5 C 0,0 km/h (0 Bft)
31.12.2011 19:45 2,7 C 9,2 C 2,6 C 2,6 C 2,5 C 0,0 C 84 % 87 % 0 % 1015,4 hPa 0,0 l/m 0,5 km/h (0 Bft) S-SW 202 0 min 0,0 UV-I 0,3 C 2,5 C 0,0 km/h (0 Bft)
31.12.2011 19:50 2,6 C 9,3 C 2,7 C 2,6 C 2,5 C 0,0 C 84 % 87 % 0 % 1015,4 hPa 0,0 l/m 0,2 km/h (0 Bft) O-SO 112 0 min 0,0 UV-I 0,2 C 2,5 C 0,0 km/h (0 Bft)
31.12.2011 19:55 2,7 C 9,3 C 2,6 C 2,6 C 2,5 C 0,0 C 84 % 87 % 0 % 1015,4 hPa 0,0 l/m 0,0 km/h (0 Bft) S 180 0 min 0,0 UV-I 0,3 C 2,5 C 0,0 km/h (0 Bft)
31.12.2011 20:00 2,7 C 9,3 C 2,6 C 2,6 C 2,5 C 0,0 C 84 % 87 % 0 % 1015,4 hPa 0,0 l/m 0,2 km/h (0 Bft) S 180 0 min 0,0 UV-I 0,3 C 2,5 C 2,6 km/h (1 Bft)
31.12.2011 20:04 2,7 C 9,2 C 2,7 C 2,7 C 2,6 C 0,0 C 85 % 88 % 0 % 1015,4 hPa 0,0 l/m 0,6 km/h (0 Bft) SW 225 0 min 0,0 UV-I 0,4 C 2,6 C 2,6 km/h (1 Bft)
31.12.2011 20:09 2,7 C 9,2 C 2,8 C 2,7 C 2,6 C 0,0 C 85 % 88 % 0 % 1015,4 hPa 0,0 l/m 0,8 km/h (0 Bft) SO 135 0 min 0,0 UV-I 0,4 C 2,6 C 0,0 km/h (0 Bft)
31.12.2011 20:14 2,7 C 9,2 C 2,8 C 2,7 C 2,6 C 0,0 C 85 % 88 % 0 % 1015,4 hPa 0,0 l/m 0,5 km/h (0 Bft) W-SW 247 0 min 0,0 UV-I 0,4 C 2,6 C 0,0 km/h (0 Bft)
31.12.2011 20:21 2,8 C 9,2 C 2,8 C 2,8 C 2,7 C 0,0 C 85 % 87 % 0 % 1015,3 hPa 0,0 l/m 1,4 km/h (1 Bft) SW 225 0 min 0,0 UV-I 0,5 C 2,7 C 3,5 km/h (1 Bft)
31.12.2011 20:25 2,9 C 9,2 C 2,9 C 2,9 C 2,9 C 0,0 C 85 % 87 % 0 % 1015,3 hPa 0,0 l/m 2,7 km/h (1 Bft) SW 225 0 min 0,0 UV-I 0,6 C 2,9 C 4,5 km/h (1 Bft)
31.12.2011 20:30 2,9 C 9,2 C 2,9 C 2,9 C 2,9 C 0,0 C 85 % 87 % 0 % 1015,3 hPa 0,0 l/m 2,6 km/h (1 Bft) S 180 0 min 0,0 UV-I 0,6 C 2,9 C 5,5 km/h (1 Bft)
31.12.2011 20:35 3,1 C 9,2 C 3,0 C 3,0 C 2,8 C 0,0 C 85 % 87 % 0 % 1015,3 hPa 0,0 l/m 2,9 km/h (1 Bft) S-SW 202 0 min 0,0 UV-I 0,8 C 2,8 C 2,6 km/h (1 Bft)
31.12.2011 20:40 3,0 C 9,3 C 3,1 C 2,8 C 2,5 C 0,0 C 84 % 87 % 0 % 1015,2 hPa 0,0 l/m 3,4 km/h (1 Bft) O-SO 112 0 min 0,0 UV-I 0,6 C 2,5 C 4,3 km/h (1 Bft)
31.12.2011 20:45 3,1 C 9,3 C 3,0 C 2,9 C 2,4 C 0,0 C 85 % 87 % 0 % 1015,2 hPa 0,0 l/m 3,5 km/h (1 Bft) O-SO 112 0 min 0,0 UV-I 0,8 C 2,4 C 4,7 km/h (1 Bft)
31.12.2011 20:50 3,1 C 9,3 C 3,1 C 2,9 C 2,4 C 0,0 C 85 % 88 % 0 % 1015,2 hPa 0,0 l/m 3,2 km/h (1 Bft) S 180 0 min 0,0 UV-I 0,8 C 2,4 C 4,7 km/h (1 Bft)
31.12.2011 20:55 3,1 C 9,4 C 3,1 C 3,0 C 2,8 C 0,0 C 85 % 88 % 0 % 1015,2 hPa 0,0 l/m 2,6 km/h (1 Bft) SO 135 0 min 0,0 UV-I 0,8 C 2,8 C 2,9 km/h (1 Bft)
31.12.2011 21:00 3,1 C 9,4 C 3,1 C 2,9 C 2,6 C 0,0 C 85 % 88 % 0 % 1015,2 hPa 0,0 l/m 2,9 km/h (1 Bft) S 180 0 min 0,0 UV-I 0,8 C 2,6 C 4,0 km/h (1 Bft)
31.12.2011 21:04 3,1 C 9,4 C 3,1 C 3,0 C 2,8 C 0,0 C 85 % 88 % 0 % 1015,2 hPa 0,0 l/m 2,6 km/h (1 Bft) SO 135 0 min 0,0 UV-I 0,8 C 2,8 C 0,0 km/h (0 Bft)
31.12.2011 21:09 3,1 C 9,3 C 3,1 C 2,9 C 2,6 C 0,0 C 85 % 88 % 0 % 1015,2 hPa 0,0 l/m 3,1 km/h (1 Bft) S 180 0 min 0,0 UV-I 0,8 C 2,6 C 5,5 km/h (1 Bft)
31.12.2011 21:14 3,2 C 9,3 C 3,0 C 3,1 C 2,8 C 0,0 C 85 % 88 % 0 % 1015,2 hPa 0,0 l/m 2,4 km/h (1 Bft) S-SO 157 0 min 0,0 UV-I 0,9 C 2,8 C 5,5 km/h (1 Bft)
31.12.2011 21:21 3,2 C 9,3 C 3,0 C 3,1 C 2,8 C 0,0 C 85 % 88 % 0 % 1015,3 hPa 0,0 l/m 2,6 km/h (1 Bft) S 180 0 min 0,0 UV-I 0,9 C 2,8 C 4,5 km/h (1 Bft)
31.12.2011 21:25 3,3 C 9,3 C 3,1 C 3,1 C 2,7 C 0,0 C 85 % 89 % 0 % 1015,3 hPa 0,0 l/m 3,1 km/h (1 Bft) W-SW 247 0 min 0,0 UV-I 1,0 C 2,7 C 2,1 km/h (1 Bft)
31.12.2011 21:30 3,2 C 9,4 C 3,1 C 3,1 C 2,8 C 0,0 C 85 % 89 % 0 % 1015,3 hPa 0,0 l/m 2,9 km/h (1 Bft) S 180 0 min 0,0 UV-I 0,9 C 2,8 C 1,9 km/h (1 Bft)
31.12.2011 21:35 3,3 C 9,4 C 3,1 C 3,2 C 3,0 C 0,0 C 86 % 89 % 0 % 1015,3 hPa 0,0 l/m 2,3 km/h (1 Bft) NW 315 0 min 0,0 UV-I 1,2 C 3,0 C 2,4 km/h (1 Bft)
31.12.2011 21:40 3,2 C 9,4 C 3,2 C 3,1 C 3,0 C 0,0 C 86 % 89 % 0 % 1015,4 hPa 0,0 l/m 2,1 km/h (1 Bft) SO 135 0 min 0,0 UV-I 1,1 C 3,0 C 6,1 km/h (2 Bft)
31.12.2011 21:45 3,2 C 9,4 C 3,2 C 3,1 C 3,0 C 0,0 C 86 % 89 % 0 % 1015,4 hPa 0,0 l/m 2,1 km/h (1 Bft) S 180 0 min 0,0 UV-I 1,1 C 3,0 C 2,4 km/h (1 Bft)
31.12.2011 21:50 3,2 C 9,4 C 3,2 C 3,1 C 3,0 C 0,0 C 86 % 89 % 0 % 1015,4 hPa 0,0 l/m 2,6 km/h (1 Bft) N-NO 22 0 min 0,0 UV-I 1,1 C 3,0 C 3,9 km/h (1 Bft)
31.12.2011 21:55 3,3 C 9,4 C 3,3 C 3,1 C 2,7 C 0,0 C 87 % 89 % 0 % 1015,4 hPa 0,0 l/m 3,2 km/h (1 Bft) S 180 0 min 0,0 UV-I 1,3 C 2,7 C 5,0 km/h (1 Bft)
31.12.2011 22:00 3,2 C 9,5 C 3,2 C 3,0 C 2,6 C 0,0 C 87 % 89 % 0 % 1015,4 hPa 0,0 l/m 3,4 km/h (1 Bft) S 180 0 min 0,0 UV-I 1,2 C 2,6 C 8,5 km/h (2 Bft)
31.12.2011 22:15 3,2 C 9,5 C 3,2 C 3,1 C 3,0 C 0,0 C 87 % 90 % 0 % 1015,4 hPa 0,0 l/m 1,8 km/h (1 Bft) W-SW 247 0 min 0,0 UV-I 1,2 C 3,0 C 4,0 km/h (1 Bft)
31.12.2011 22:17 3,2 C 9,5 C 3,2 C 3,1 C 3,0 C 0,0 C 87 % 90 % 0 % 1015,4 hPa 0,0 l/m 1,8 km/h (1 Bft) W-SW 247 0 min 0,0 UV-I 1,2 C 3,0 C 4,0 km/h (1 Bft)
31.12.2011 22:28 3,2 C 9,5 C 3,1 C 3,0 C 2,6 C 0,0 C 88 % 91 % 0 % 1015,4 hPa 0,0 l/m 3,4 km/h (1 Bft) SW 225 0 min 0,0 UV-I 1,4 C 2,6 C 3,9 km/h (1 Bft)
31.12.2011 22:29 3,2 C 9,5 C 3,1 C 3,0 C 2,6 C 0,0 C 88 % 91 % 0 % 1015,4 hPa 0,0 l/m 3,4 km/h (1 Bft) SW 225 0 min 0,0 UV-I 1,4 C 2,6 C 3,9 km/h (1 Bft)
31.12.2011 22:30 3,1 C 9,5 C 3,1 C 3,0 C 2,9 C 0,0 C 88 % 91 % 0 % 1015,4 hPa 0,0 l/m 2,9 km/h (1 Bft) S 180 0 min 0,0 UV-I 1,3 C 2,9 C 5,3 km/h (1 Bft)
31.12.2011 22:31 3,1 C 9,5 C 3,1 C 3,0 C 2,9 C 0,0 C 88 % 91 % 0 % 1015,4 hPa 0,0 l/m 2,9 km/h (1 Bft) S 180 0 min 0,0 UV-I 1,3 C 2,9 C 5,3 km/h (1 Bft)
31.12.2011 22:32 3,1 C 9,5 C 3,1 C 3,0 C 2,9 C 0,0 C 88 % 91 % 0 % 1015,4 hPa 0,0 l/m 2,9 km/h (1 Bft) S 180 0 min 0,0 UV-I 1,3 C 2,9 C 5,3 km/h (1 Bft)
31.12.2011 22:34 3,1 C 9,5 C 3,1 C 3,0 C 2,7 C 0,0 C 89 % 91 % 0 % 1015,4 hPa 0,0 l/m 3,4 km/h (1 Bft) SW 225 0 min 0,0 UV-I 1,5 C 2,7 C 7,4 km/h (2 Bft)
31.12.2011 22:36 3,1 C 9,5 C 3,1 C 3,0 C 2,7 C 0,0 C 89 % 91 % 0 % 1015,4 hPa 0,0 l/m 3,4 km/h (1 Bft) SW 225 0 min 0,0 UV-I 1,5 C 2,7 C 7,4 km/h (2 Bft)
31.12.2011 22:40 3,1 C 9,5 C 3,1 C 2,9 C 2,6 C 0,0 C 89 % 92 % 0 % 1015,4 hPa 0,0 l/m 3,7 km/h (1 Bft) S 180 0 min 0,0 UV-I 1,5 C 2,6 C 6,0 km/h (2 Bft)
31.12.2011 22:45 3,1 C 9,5 C 3,2 C 2,9 C 2,6 C 0,0 C 89 % 92 % 0 % 1015,4 hPa 0,7 l/m 3,7 km/h (1 Bft) NW 315 0 min 0,0 UV-I 1,5 C 2,6 C 0,0 km/h (0 Bft)
31.12.2011 22:50 3,1 C 9,5 C 3,2 C 3,0 C 2,7 C 0,0 C 89 % 92 % 0 % 1015,4 hPa 0,0 l/m 3,7 km/h (1 Bft) SW 225 0 min 0,0 UV-I 1,5 C 2,7 C 3,7 km/h (1 Bft)
31.12.2011 22:55 3,1 C 9,5 C 3,2 C 3,1 C 3,0 C 0,0 C 89 % 92 % 0 % 1015,4 hPa 0,0 l/m 3,1 km/h (1 Bft) NO 45 0 min 0,0 UV-I 1,5 C 3,0 C 0,0 km/h (0 Bft)
31.12.2011 23:00 3,1 C 9,5 C 3,2 C 3,2 C 3,2 C 0,1 C 90 % 93 % 0 % 1015,1 hPa 0,0 l/m 2,6 km/h (1 Bft) SW 225 0 min 0,0 UV-I 1,6 C 3,2 C 4,8 km/h (1 Bft)
31.12.2011 23:14 3,1 C 9,5 C 3,3 C 3,0 C 2,7 C 0,0 C 90 % 93 % 0 % 1015,1 hPa 0,0 l/m 3,9 km/h (1 Bft) S-SW 202 0 min 0,0 UV-I 1,6 C 2,7 C 3,9 km/h (1 Bft)
31.12.2011 23:15 3,1 C 9,5 C 3,3 C 3,0 C 2,7 C 0,0 C 90 % 93 % 0 % 1015,1 hPa 0,0 l/m 3,9 km/h (1 Bft) S-SW 202 0 min 0,0 UV-I 1,6 C 2,7 C 3,9 km/h (1 Bft)
31.12.2011 23:18 3,1 C 9,5 C 3,3 C 3,0 C 2,7 C 0,0 C 90 % 93 % 0 % 1015,1 hPa 0,0 l/m 3,9 km/h (1 Bft) S-SW 202 0 min 0,0 UV-I 1,6 C 2,7 C 3,9 km/h (1 Bft)
31.12.2011 23:29 3,1 C 9,5 C 3,2 C 3,3 C 3,3 C 0,2 C 90 % 93 % 0 % 1015,6 hPa 0,0 l/m 1,3 km/h (1 Bft) W-SW 247 0 min 0,0 UV-I 1,6 C 3,3 C 0,0 km/h (0 Bft)
31.12.2011 23:30 3,1 C 9,5 C 3,2 C 3,3 C 3,3 C 0,2 C 90 % 93 % 0 % 1015,6 hPa 0,0 l/m 1,3 km/h (1 Bft) W-SW 247 0 min 0,0 UV-I 1,6 C 3,3 C 0,0 km/h (0 Bft)
31.12.2011 23:31 3,1 C 9,5 C 3,2 C 3,3 C 3,3 C 0,2 C 90 % 93 % 0 % 1015,6 hPa 0,0 l/m 1,3 km/h (1 Bft) W-SW 247 0 min 0,0 UV-I 1,6 C 3,3 C 0,0 km/h (0 Bft)
31.12.2011 23:32 3,1 C 9,5 C 3,2 C 3,3 C 3,3 C 0,2 C 90 % 93 % 0 % 1015,6 hPa 0,0 l/m 1,3 km/h (1 Bft) W-SW 247 0 min 0,0 UV-I 1,6 C 3,3 C 0,0 km/h (0 Bft)
31.12.2011 23:33 3,1 C 9,5 C 3,2 C 3,3 C 3,3 C 0,2 C 90 % 93 % 0 % 1015,6 hPa 0,0 l/m 1,3 km/h (1 Bft) W-SW 247 0 min 0,0 UV-I 1,6 C 3,3 C 0,0 km/h (0 Bft)
31.12.2011 23:34 3,1 C 9,5 C 3,2 C 3,3 C 3,3 C 0,2 C 90 % 93 % 0 % 1015,6 hPa 0,0 l/m 0,6 km/h (0 Bft) O-SO 112 0 min 0,0 UV-I 1,6 C 3,3 C 0,0 km/h (0 Bft)
31.12.2011 23:37 3,1 C 9,5 C 3,2 C 3,3 C 3,3 C 0,2 C 90 % 93 % 0 % 1015,6 hPa 0,0 l/m 0,6 km/h (0 Bft) O-SO 112 0 min 0,0 UV-I 1,6 C 3,3 C 0,0 km/h (0 Bft)
31.12.2011 23:40 3,1 C 9,5 C 3,2 C 3,3 C 3,3 C 0,2 C 90 % 93 % 0 % 1015,4 hPa 0,0 l/m 0,8 km/h (0 Bft) W-SW 247 0 min 0,0 UV-I 1,6 C 3,3 C 1,6 km/h (1 Bft)
31.12.2011 23:45 3,2 C 9,5 C 3,2 C 3,3 C 3,3 C 0,1 C 90 % 93 % 0 % 1015,4 hPa 0,0 l/m 1,3 km/h (1 Bft) S 180 0 min 0,0 UV-I 1,7 C 3,3 C 2,1 km/h (1 Bft)
31.12.2011 23:50 3,2 C 9,5 C 3,2 C 3,3 C 3,3 C 0,1 C 90 % 93 % 0 % 1015,4 hPa 0,0 l/m 1,6 km/h (1 Bft) S 180 0 min 0,0 UV-I 1,7 C 3,3 C 2,1 km/h (1 Bft)
31.12.2011 23:55 3,3 C 9,5 C 3,3 C 3,3 C 3,3 C 0,0 C 90 % 93 % 0 % 1015,4 hPa 0,0 l/m 2,3 km/h (1 Bft) SW 225 0 min 0,0 UV-I 1,8 C 3,3 C 5,1 km/h (1 Bft)
_ Min-Zeit 08:45 11:40 08:35 08:35 01:40 00:00 13:50 13:50 00:00 15:39 - 08:25 - - - 00:00 08:35 01:40 07:14
Minimum _ 1,1 C 8,8 C 1,2 C 0,7 C -0,9 C 0,0 C 74 % 77 % 0 % 1015,1 hPa - 0,0 km/h (0 Bft) - - - 0,0 UV-I -0,9 C -5,2 C 0,0 km/h (0 Bft)
_ Max-Zeit 13:45 22:00 13:45 11:55 11:55 11:55 23:00 23:00 11:55 04:20 22:45 01:40 - - 00:00 00:00 23:55 11:55 01:20
Maximum _ 4,1 C 9,5 C 4,1 C 4,9 C 4,9 C 1,3 C 90 % 93 % 34 % 1017,4 hPa 0,7 l/m 13,5 km/h
W-SW (3 Bft)
- - 0 min 0,0 UV-I 1,8 C 4,9 C 24,0 km/h
W-SW (4 Bft)
Durchschnitt _ 2,9 C 9,1 C 2,8 C 2,6 C 1,9 C 0,0 C 83 % 86 % 1 % 1016,2 hPa #0,7 l/m 4,0 km/h (1 Bft) W-SW - #0 min. 0,0 UV-I 0,2 C 1,1 C 5,1 km/h (1 Bft)
2011 www.wetterstation-wechselburg.de